MIDAS 4 DEB, 2009

Orbit data source: Space-Track

MIDAS 4 DEB, 2009 is space debris in LEO originally from a launch on Sat, 21 Oct 1961 UTC launched from the Air Force Western Test Range (AFWTR). Debris objects in space refer to the collection of defunct objects orbiting the Earth. Examples of debris include non-operational satellites, rocket bodies, and fragments generated from explosions, collisions, or faulty payload assembly.

Loading next visibility...
Identifier
2009, 1961-028E
Orbit
LEO
Country
Flag of USUS
Related business
Manufacturer
Unknown
Mission
Spacecraft
Bus & Motor
Unknown
Mass
~10 kg wet, ~10 kg dry
Launch date (UTC)
1961-10-21 (64 years ago)
Launch vehicle
Unknown
Launch site
Air Force Western Test Range (AFWTR)
Object type
Payload
Rocket body
Debris
Shape & HBR
Unknown
Radar Cross Section
Medium (>0.1 m² and <1 m²)

Expand to show TLE details & history
Last TLE update: 1 week ago

TLE from 1 week ago
0 MIDAS 4 DEB
1 02009U 61028E   25235.25865045 -.00000004  00000-0 -43685-3 0  9995
2 02009  95.8268 167.3475 0122287 189.4958 170.3577  8.68991031364121
Epoch: 2025-08-23T06:12Z
TLE epoch observation values (Epoch: 2025-08-23T06:12:27.398Z)
Latitude
-0.00007°
Longitude
102.43736°
Altitude
3,738.227 km
Speed
6.24 km/s
True Right ascension
11h 09m 23s
True Declination
0° 00' 00"
Sunlit
Object was in daylight at epoch
Visualization orbit readout
Latitude
Unknown
Longitude
Unknown
Altitude
Unknown
Speed
Unknown
Apparent Right ascension
Unknown
Apparent Declination
Unknown
Sunlit
N/A
Visualization observer readout
Local Sidereal Time
23:23:23
Azimuth
Unknown
Elevation
Unknown
Doppler factor
Unknown
Orbital elements
Apogee altitude
3,735.587 km
Perigee altitude
3,491.22 km
Semi-major axis
9,991.54 km
Eccentricity
0.01223
Inclination
95.8268°
RAAN
167.3475°
Arg. of periapsis
189.4958°
True anomaly
170.58893°
Mean anomaly
170.3577°
Eccentric anomaly
170.47366°
Mean motion
2.17317 °/min
Orbital period
165.66 mins
BSTAR
-0.00043685
Loading maneuver chart data...
Computing Atmospheric mass density...
Loading historical data...
Loading historical data...
Loading historical data...
Loading historical data...
Loading historical data...
Loading historical data...
Loading historical data...

Documentation

Showing up to 5 results
|